Current Version              Previous Version:    01  02  03  04  05  06  07  08  09  10  11  12  13  14  15  16  17  18  19  20  21  22  23  24  25  26  27  28  29  30  
   31  32  33  34  35  36  37  38  39  40  41  42  43  44  45  46  47  48  49  50  51  52  53  54  55  56  57  58  59  60  

[Printable]
114
ASUS44 KFWD 291701
RWRTX
NORTH TEXAS HOURLY WEATHER ROUNDUP
NATIONAL WEATHER SERVICE FORT WORTH TX
1200 PM CDT TUE JUL 29 2014

NOTE: "FAIR" INDICATES FEW OR NO CLOUDS BELOW 12,000 FEET WITH NO
SIGNIFICANT WEATHER AND/OR OBSTRUCTIONS TO VISIBILITY.

TXZ118-119-291800-
DALLAS/FORT WORTH METROPLEX

CITY           SKY/WX    TMP DP  RH WIND       PRES   REMARKS
DFW AIRPORT    CLOUDY    83  61  47 SE5       30.15F
DALLAS LOVE    CLOUDY    83  62  49 CALM      30.15S
FTW MEACHAM    HVY RAIN  77  65  66 CALM      30.18R
DAL-EXECUTIVE  CLOUDY    82  64  54 CALM      30.16S
FTW-ALLIANCE   LGT RAIN  78  63  59 SW7       30.18R
FTW-NAS-JRB    CLOUDY    81  62  52 W3        30.22R
FTW-SPINKS     PTSUNNY   82  61  47 CALM      30.20R
ARLINGTON      LGT RAIN  80  63  55 CALM      30.17S
GRAND PRAIRIE  SUNNY     81  61  50 E7        30.18S
ADDISON        PTSUNNY   82  59  44 SE5       30.16S
MESQUITE       SUNNY     84  59  42 SE3       30.15F
LANCASTER      CLOUDY    82  62  50 E3        30.17S
$$

TXZ091>094-102>105-117-120-121-131>134-291800-
NORTH CENTRAL TEXAS

CITY           SKY/WX    TMP DP  RH WIND       PRES   REMARKS
SHRMAN/DENISON MOSUNNY   86  57  36 E5        30.17F
GAINESVILLE    CLOUDY    81  63  53 SE6       30.19S
BOWIE          CLOUDY    76  66  72 S7        30.19S
BRIDGEPORT     LGT RAIN  73  67  84 SW6       30.22F
DECATUR        CLOUDY    76  64  66 CALM      30.21S
DENTON         CLOUDY    79  63  57 CALM      30.17S
MCKINNEY       CLOUDY    84  62  47 S6        30.15F
GREENVILLE     MOSUNNY   86  57  37 CALM      30.15F
ROCKWALL       PTSUNNY   85  62  44 CALM      30.14S
TERRELL        PTSUNNY   89  59  36 VRB5      30.15F
WAXAHACHIE     CLOUDY    78  63  59 E5        30.18S
CLEBURNE       CLOUDY    79  63  57 N6        30.20R
GRANBURY       RAIN      74  67  77 E3        30.19F
$$

TXZ083>090-098>101-113>116-127>130-139>142-154-155-291800-
WESTERN NORTH TEXAS

CITY           SKY/WX    TMP DP  RH WIND       PRES   REMARKS
WICHITA FALLS  CLOUDY    76  62  62 S9        30.18F
WF-KICKAPOO    CLOUDY    76  62  60 S7        30.20F
VERNON         PTSUNNY   69  64  83 SE7       30.21S
ABILENE        SUNNY     86  65  49 VRB6      30.18S
ABILENE-DYESS  MOSUNNY   87  66  50 SE7       30.17S
BRECKENRIDGE   SUNNY     87  57  36 E13       30.17F HAZE
GRAHAM         PTSUNNY   71  62  72 E9        30.18S
MINERAL WELLS  CLOUDY    69  62  78 NE9       30.20R
STEPHENVILLE   PTSUNNY   80  61  52 E13       30.21S
COMANCHE       MOSUNNY   84  64  50 E12       30.18S
BROWNWOOD      MOSUNNY   86  66  51 E8        30.16F
COLEMAN        SUNNY     86  65  48 E5        30.17F
BRADY          SUNNY     88  68  51 CALM      30.16F HAZE    HX  91
$$

TXZ143>147-156>162-174-175-291800-
CENTRAL TEXAS

CITY           SKY/WX    TMP DP  RH WIND       PRES   REMARKS
WACO           PTSUNNY   86  68  54 VRB7      30.14S
WACO-MCGREGOR  MOSUNNY   90  68  48 NE8       30.15S HX  93
CORSICANA      CLOUDY    84  67  56 E3        30.16S
MEXIA          CLOUDY    79  72  77 N3        30.14S
CAMERON          N/A     87  71  57 E6        30.11F HX  93
TEMPLE         MOSUNNY   88  68  51 SE9       30.13F HX  91
KILLEEN        MOSUNNY   88  72  58 NE8       30.13F HX  94
KILLEEN-SKYLRK MOSUNNY   88  68  51 NE10      30.13F HX  91
FORT HOOD      PTSUNNY   90  70  51 NE8       30.13F HX  95
GATESVILLE     MOSUNNY   88  68  51 NE8       30.16F HX  91
HAMILTON       SUNNY     87  66  50 E9        30.18S
LAMPASAS       SUNNY     88  73  60 N3        30.14F HX  96
$$

TXZ095>097-106>112-122>126-135>138-148>153-164>167-291800-
EAST TEXAS

CITY           SKY/WX    TMP DP  RH WIND       PRES   REMARKS
PARIS          MOSUNNY   84  64  51 S6        30.15F
SULPHUR SPRNGS MOSUNNY   85  63  47 SE3       30.17S
CLARKSVILLE    MOSUNNY   86  63  46 E5        30.15S
MOUNT PLEASANT SUNNY     86  63  46 NE3       30.15S
GILMER         SUNNY     86  66  51 CALM      30.15S
MINEOLA        MOSUNNY   82  64  54 CALM      30.15S
TYLER          MOSUNNY   87  65  47 VRB7      30.14F
LONGVIEW       SUNNY     87  64  46 S6        30.12F
MARSHALL       SUNNY     89  69  52 CALM      30.14S HX  93
ATHENS         MOSUNNY   82  70  65 E5        30.14S
JACKSONVILLE   PTSUNNY   84  70  63 E3        30.16F
HENDERSON      MOSUNNY   85  68  56 CALM      30.14F
NACOGDOCHES    PTSUNNY   84  68  58 E5        30.13F
LUFKIN         PTSUNNY   87  73  62 E8        30.12F HX  94
$$

SUPPLEMENTAL OBSERVATIONS (CENTRAL)

CITY           SKY/WX    TMP DP  RH WIND       PRES   REMARKS
$$

SUPPLEMENTAL OBSERVATIONS (WEST)

CITY           SKY/WX    TMP DP  RH WIND       PRES   REMARKS
$$

SUPPLEMENTAL OBSERVATIONS (EAST)

CITY           SKY/WX    TMP DP  RH WIND       PRES   REMARKS
$$

SUPPLEMENTAL OBSERVATIONS ARE A COLLECTION OF AUTOMATED INSTRUMENTS
THAT ARE MAINTAINED BY A VARIETY OF FEDERAL AND STATE AGENCIES.
CERTAIN ELEMENTS...SUCH AS HUMIDITY VALUES AND SUSTAINED WIND
SPEEDS...MAY BE APPROXIMATED.